COSMOS 249 DEB *, 6176

Orbit data source: Space-Track

COSMOS 249 DEB *, 6176 is space debris in LEO originally from a launch on Sun, 20 Oct 1968 UTC launched from the Tyuratam Missile And Space Complex (TTMTR). Debris objects in space refer to the collection of defunct objects orbiting the Earth. Examples of debris include non-operational satellites, rocket bodies, and fragments generated from explosions, collisions, or faulty payload assembly.

Loading next visibility...
Identifier
6176, 1968-091CG
Orbit
LEO
Country
Flag of CISCIS
Related business
Manufacturer
Unknown
Mission
Spacecraft
Bus & Motor
Unknown
Mass
Unknown
Launch date (UTC)
1968-10-20 (57 years ago)
Launch vehicle
Unknown
Launch site
Tyuratam Missile And Space Complex (TTMTR)
Object type
Payload
Rocket body
Debris
Shape & HBR
Unknown shape, 0.1 m
Radar Cross Section
Small (<0.1 m²)

Expand to show TLE details & history
Last TLE update: 18 hours ago

TLE from 18 hours ago
0 COSMOS 249 DEB *
1 06176U 68091CG  25286.42751368  .00000717  00000-0  13710-2 0  9992
2 06176  65.7275  55.5321 0462248 145.5258 217.6695 13.08307927126905
Epoch: 2025-10-13T10:15Z
TLE epoch observation values (Epoch: 2025-10-13T10:15:37.181Z)
Latitude
-0.00003°
Longitude
-120.60328°
Altitude
1,515.781 km
Speed
6.974 km/s
True Right ascension
03h 42m 07s
True Declination
0° 00' 00"
Sunlit
Object was in full shadow at epoch
Visualization orbit readout
Latitude
Unknown
Longitude
Unknown
Altitude
Unknown
Speed
Unknown
Apparent Right ascension
Unknown
Apparent Declination
Unknown
Sunlit
N/A
Visualization observer readout
Local Sidereal Time
22:27:48
Azimuth
Unknown
Elevation
Unknown
Doppler factor
Unknown
Orbital elements
Apogee altitude
1,579.89 km
Perigee altitude
876.679 km
Semi-major axis
7,606.422 km
Eccentricity
0.04622
Inclination
65.7275°
RAAN
55.5321°
Arg. of periapsis
145.5258°
True anomaly
214.57579°
Mean anomaly
217.6695°
Eccentric anomaly
216.1087°
Mean motion
3.27169 °/min
Orbital period
110.03 mins
BSTAR
0.001371
Loading maneuver chart data...
Computing Atmospheric mass density...
Loading historical data...
Loading historical data...
Loading historical data...
Loading historical data...
Loading historical data...
Loading historical data...
Loading historical data...

Documentation

Showing up to 5 results
|